Location: Unspecified
(0.0000°N, 0.0000°E)
Time: 01:19:00
(UTC+00:00)

TBA - TO BE ASSIGNED - Pass Details

Date: 25 May 2026
Orbit: 464 x 467 km, 97.3° (Epoch: 10 June)

Event Time Altitude Azimuth Distance (km) Brightness Sun altitude
Rises 19:02:57 0° 348° (NNW) 2,478 ? -15.4°
Reaches altitude 10° 19:05:20 10° 331° (NNW) 1,607 ? -15.9°
Maximum altitude 19:07:59 21° 281° (W) 1,099 ? -16.5°
Drops below altitude 10° 19:10:38 10° 231° (SW) 1,615 ? -17.1°
Sets 19:13:02 0° 214° (SW) 2,494 ? -17.7°
